Location: Angwan Shehu
(11.2514°N, 7.4613°E)
Time: 04:17:37
(UTC+00:00)

Explorer 11/Cluster Stage 4 - Visible Passes

Search period start: 14 April 2021 00:00
Search period end: 24 April 2021 00:00
Orbit: 467 x 1257 km, 28.8° (Epoch: 12 April)

Date Brightness Start Highest point End Pass type
(mag) Time Alt. Az. Time Alt. Az. Time Alt. Az.
15 Apr 8.2 03:57:50 10° SSE 03:59:12 12° SE 04:00:35 10° SE visible
16 Apr 7.9 03:47:33 14° SSE 03:48:16 15° SSE 03:50:30 10° ESE visible
17 Apr 7.6 03:37:34 19° SE 03:37:34 19° SE 03:40:07 10° E visible
18 Apr 7.6 03:27:33 22° ESE 03:27:33 22° ESE 03:29:35 10° E visible
19 Apr 7.9 03:17:28 20° E 03:17:28 20° E 03:18:57 10° E visible
20 Apr 8.4 03:07:21 16° E 03:07:21 16° E 03:08:15 10° ENE visible
20 Apr 7.1 04:50:01 10° WNW 04:53:00 24° NNW 04:56:09 10° NE visible
21 Apr 8.8 02:57:11 12° ENE 02:57:11 12° ENE 02:57:30 10° ENE visible
21 Apr 7.4 04:39:32 10° WNW 04:42:13 19° NNW 04:44:58 10° NNE visible
22 Apr 7.7 04:29:08 10° WNW 04:31:26 16° NNW 04:33:45 10° NNE visible
23 Apr 7.9 04:18:52 10° NW 04:20:39 13° NNW 04:22:26 10° N visible
